Theta_e
309 309 308 309 311 311 311 311 309 307 307 309 310 310 310 310 307 301 299 297 296 296 296 295 295 296 296 296 297 298 299 299 299 298 297 297 296 296 295 295 295 295 294 293 292 291 291 290 290 290 289 288 288 288 288 287 287 287 287 287 286 286 286 285 285 286 286 285 285 285 285 284 284 284 284 283 283 283 283 283 283 283 283 283 284
309 308 307 308 310 311 311 311 310 308 309 310 311 310 309 308 305 300 298 297 296 296 295 295 295 295 296 296 297 298 298 299 298 297 297 296 296 295 295 295 295 294 293 292 292 291 291 290 290 289 289 288 288 288 287 287 287 287 287 286 286 286 286 286 286 286 286 286 285 285 285 285 284 284 284 283 283 283 283 283 283 283 283 283 284
309 309 307 308 309 310 311 311 311 311 311 311 311 309 306 305 303 299 297 296 296 295 295 295 295 295 295 296 296 297 297 297 297 296 296 296 295 295 294 294 294 293 292 292 291 291 290 290 290 289 289 288 288 288 288 287 287 287 287 286 286 286 286 286 286 286 286 286 286 286 285 285 284 284 284 283 283 283 283 283 283 283 283 283 283
309 309 308 308 308 309 310 311 311 311 311 311 310 307 304 303 301 298 296 296 295 295 294 294 294 295 295 295 296 296 296 296 295 295 295 294 294 294 293 293 293 292 292 291 291 290 290 290 289 289 289 288 288 288 288 287 287 287 286 286 286 286 286 286 286 286 286 286 286 286 286 285 285 284 284 283 283 283 283 283 283 283 283 283 283
308 309 308 308 307 308 310 311 311 311 311 311 310 306 302 301 300 297 296 295 295 294 294 293 294 294 294 295 295 295 295 295 294 294 294 293 293 292 292 292 292 291 291 291 290 290 290 289 289 289 289 289 288 288 288 288 287 287 287 286 286 286 286 286 286 286 286 286 286 286 286 285 285 284 283 283 283 283 283 283 283 283 283 283 283
308 308 308 308 307 307 309 311 311 311 311 311 309 305 302 300 299 297 295 295 294 294 293 293 293 294 294 294 294 294 294 294 293 293 293 292 292 292 292 292 291 291 291 291 290 290 289 289 289 289 289 289 288 288 288 288 288 287 287 287 286 286 286 286 286 286 286 286 286 286 286 285 285 284 283 283 283 283 283 283 283 283 283 283 283
307 307 308 308 307 307 308 310 310 310 311 310 307 304 302 300 298 297 295 294 294 293 293 293 293 293 293 293 293 293 293 293 293 292 292 292 291 292 291 291 291 291 291 290 290 289 289 289 289 289 289 289 288 288 288 288 288 288 287 287 287 286 286 286 286 286 286 286 286 286 285 285 285 284 283 282 282 282 282 283 283 283 283 283 283
306 306 307 308 307 306 307 309 309 310 311 310 307 303 301 300 298 296 295 294 293 293 293 293 293 293 293 293 292 292 292 292 292 292 291 291 291 291 291 291 291 291 290 290 290 289 289 289 289 289 289 288 288 288 288 288 287 287 287 287 287 287 286 286 286 286 286 286 286 285 285 285 285 284 283 283 282 282 282 282 283 283 283 283 283
305 305 306 307 307 307 307 309 309 310 310 310 307 303 301 300 298 296 294 293 293 293 292 292 292 293 292 292 292 292 292 291 291 291 291 291 291 291 291 291 290 290 290 290 289 289 289 289 289 289 288 288 288 288 287 287 287 287 287 287 287 287 286 286 286 286 286 286 286 285 285 285 285 285 284 283 282 282 282 281 282 282 282 283 283
305 305 305 306 307 307 308 308 309 309 310 310 307 303 301 299 298 296 294 293 293 292 292 292 292 292 292 292 292 292 291 291 291 291 290 290 290 290 290 290 290 290 290 289 289 289 289 289 289 288 288 288 288 287 287 286 286 286 286 287 287 287 286 286 286 286 286 285 285 285 285 285 285 285 284 283 282 282 281 281 281 282 282 282 283
305 304 304 305 307 307 308 308 308 308 309 309 308 305 301 299 298 296 294 293 292 292 292 292 292 292 291 291 291 292 291 291 291 290 290 290 290 290 290 290 290 289 289 289 289 289 289 289 288 288 288 288 288 287 286 286 286 286 286 286 287 287 286 286 286 286 286 286 285 285 285 285 285 285 284 283 282 281 281 281 281 281 281 282 282
305 304 304 304 305 307 307 308 308 308 308 308 308 306 303 301 299 296 294 293 292 292 292 291 291 291 291 290 291 291 291 291 290 290 289 290 290 290 290 290 289 289 289 289 288 288 288 288 288 288 288 288 287 287 286 286 286 285 286 286 286 286 286 286 286 286 286 285 285 285 285 285 285 285 284 283 282 281 281 280 280 280 280 280 281
304 304 303 303 304 305 307 307 308 308 308 308 308 307 305 302 300 298 296 294 292 292 292 291 291 291 290 291 291 291 291 290 289 289 289 290 290 290 290 290 289 289 289 288 288 288 288 288 288 288 288 288 287 287 286 286 286 286 286 286 286 286 286 286 286 286 286 285 285 285 285 285 285 285 284 282 281 281 280 280 279 279 280 279 279
304 303 303 303 303 304 305 307 307 308 308 308 308 307 305 303 301 299 297 294 293 292 292 291 291 290 291 291 291 291 290 289 289 289 290 290 290 290 290 289 289 289 289 288 288 288 288 288 288 288 288 287 287 287 287 286 286 286 286 285 286 286 286 286 286 286 285 285 285 285 285 285 284 284 283 282 281 280 279 279 279 279 279 279 278
303 303 302 302 302 303 304 305 306 307 308 308 308 307 305 303 302 300 298 296 293 292 292 291 290 291 292 292 291 290 289 289 290 290 290 289 289 289 289 289 289 289 288 288 288 288 288 288 288 288 288 287 287 287 287 287 286 286 286 285 285 285 285 285 285 285 285 285 285 285 285 285 284 284 283 282 280 280 279 279 279 278 278 278 278
302 302 301 301 301 302 302 304 305 306 307 307 307 305 303 302 301 300 298 296 293 292 291 291 291 292 293 292 290 289 289 291 292 291 289 289 289 289 289 289 289 288 288 288 288 288 288 288 288 288 288 287 287 287 287 287 286 286 286 286 285 285 285 285 285 285 285 284 285 284 284 284 284 284 283 281 280 281 281 279 278 278 277 278 278
301 300 300 300 301 301 302 302 303 305 305 306 305 303 301 300 300 299 298 295 293 292 291 291 292 294 293 291 289 290 291 293 292 290 289 289 288 288 288 288 288 288 288 288 288 287 287 287 287 287 287 287 287 287 287 286 286 286 286 286 285 285 285 285 285 285 285 284 284 284 284 284 283 283 283 281 280 281 280 279 278 277 276 276 277
300 299 299 299 300 300 301 302 303 304 304 304 303 301 299 299 298 297 296 295 293 292 291 292 294 294 292 290 290 291 293 293 292 290 289 289 288 287 288 288 288 288 288 287 288 287 287 287 287 287 287 287 287 287 287 286 286 286 286 286 285 285 285 285 285 285 284 284 284 284 284 284 283 283 282 281 280 279 279 278 277 277 276 275 276
299 299 298 299 299 300 301 301 302 302 302 302 300 299 299 298 297 296 294 293 292 292 293 294 294 293 291 290 291 293 294 293 291 290 289 288 287 286 287 287 287 287 287 287 287 287 287 287 287 287 287 287 287 287 286 286 286 286 285 285 285 285 285 285 284 284 284 284 284 283 283 283 283 282 282 281 279 279 278 277 276 276 276 275 275
298 298 298 298 298 299 300 300 300 300 300 299 298 297 296 296 295 295 295 295 295 296 296 296 295 294 293 293 293 294 293 291 290 289 288 287 286 286 286 286 286 287 287 287 287 287 287 287 287 287 287 287 286 286 286 286 285 285 285 284 284 285 285 284 284 284 284 283 283 283 283 282 282 282 281 280 279 278 278 277 276 275 275 275 275
297 297 297 297 298 298 298 298 297 297 296 296 296 296 296 296 296 297 297 298 298 297 297 296 296 295 295 294 293 292 291 289 288 287 286 286 286 285 285 285 286 286 286 286 286 286 286 286 286 286 286 286 286 286 285 285 285 285 284 284 284 284 284 284 283 283 283 283 283 283 282 282 282 281 281 280 279 278 277 276 276 275 275 274 274
297 297 297 297 297 297 296 296 296 296 297 297 298 298 298 298 299 299 298 298 297 297 296 295 295 294 293 292 291 290 288 287 287 286 286 286 286 285 285 285 285 285 285 285 285 285 285 285 286 286 286 286 285 285 285 285 284 284 284 284 284 284 283 283 283 283 282 282 282 282 282 282 282 281 281 280 279 277 276 276 275 275 274 274 274
299 299 299 299 299 299 299 299 299 299 299 300 300 299 299 299 299 299 298 297 296 295 294 293 292 291 290 289 288 288 287 287 286 286 286 286 286 285 285 285 285 284 284 285 285 285 285 285 285 285 285 285 285 284 284 284 284 284 284 283 283 282 282 282 282 282 281 281 281 281 282 281 280 280 280 279 278 276 276 275 275 275 274 273 273
301 301 301 300 300 300 300 300 299 299 299 299 299 299 299 299 298 298 296 295 294 293 292 291 290 289 289 289 288 288 287 287 287 286 286 286 286 285 285 285 285 284 285 285 285 285 285 285 285 285 285 285 285 284 284 284 284 284 283 283 282 281 281 280 280 280 280 280 280 280 280 280 279 279 279 278 277 276 276 275 275 275 274 273 273
300 300 299 299 299 299 299 298 298 298 298 298 298 298 297 297 296 295 294 293 292 291 291 290 290 290 289 289 288 288 288 287 287 287 287 286 286 286 286 286 285 285 285 286 286 286 286 286 286 286 286 285 285 285 286 285 285 284 283 282 280 280 279 279 279 279 279 279 279 279 279 279 279 279 278 277 276 276 276 275 275 275 274 273 273
299 298 298 298 298 298 298 298 297 297 297 296 296 295 295 294 294 293 293 292 292 291 291 291 290 290 290 289 289 289 288 288 288 288 288 287 287 287 287 287 287 287 287 287 287 287 287 287 286 286 286 286 285 286 286 285 285 284 283 281 279 279 278 278 278 279 279 279 279 279 279 279 278 278 277 277 276 276 275 275 275 274 273 273 273
298 298 298 297 297 297 296 296 296 296 295 295 294 294 293 293 292 292 292 292 291 291 291 291 290 290 290 290 289 289 289 289 289 289 289 288 288 288 288 288 288 287 287 287 287 287 287 286 286 285 285 285 285 284 284 284 284 283 282 281 279 278 278 277 278 278 278 278 278 278 278 278 278 277 277 277 276 276 275 275 274 274 273 272 272
297 296 296 296 295 295 294 294 293 293 293 292 291 291 291 291 290 290 290 290 290 290 290 290 290 290 289 289 289 289 289 289 289 289 289 289 288 288 288 288 287 287 287 286 286 286 286 285 285 284 284 284 283 283 282 282 282 282 281 280 278 278 277 277 277 277 277 277 277 277 277 277 277 277 277 276 276 275 275 274 274 273 272 272 272
295 294 294 294 293 293 292 292 291 291 291 290 290 290 290 290 290 290 290 290 290 289 289 289 289 289 289 289 289 289 289 289 289 289 288 288 288 288 287 287 287 286 286 285 285 285 285 285 284 284 283 283 283 282 281 281 281 280 280 279 278 277 276 276 276 276 276 276 276 276 276 276 276 276 276 276 275 275 274 273 273 272 272 271 271
292 292 292 292 291 291 291 290 290 290 290 290 290 290 290 290 290 290 290 290 289 289 289 289 289 289 289 289 289 289 289 289 289 288 288 288 288 288 287 287 287 286 286 285 285 285 285 285 284 283 283 282 282 281 280 280 279 279 278 278 277 277 276 276 276 276 276 276 276 275 275 275 275 275 275 275 274 274 273 273 272 272 271 271 271
291 291 291 291 290 290 290 290 290 290 290 290 290 290 290 290 290 290 290 290 290 290 290 289 289 289 289 289 289 289 289 289 288 288 288 288 288 287 287 286 286 286 285 284 284 284 284 283 283 282 281 281 280 279 278 278 277 277 277 276 276 276 276 276 276 276 276 276 275 275 275 275 275 275 274 274 274 273 273 272 272 272 271 271 271
291 291 291 290 290 290 290 290 290 290 290 290 290 290 290 290 290 290 290 290 290 290 289 289 289 289 289 289 289 289 288 288 288 288 288 287 287 286 286 285 284 284 283 282 281 281 280 279 279 278 278 277 277 277 277 277 276 276 276 276 276 276 275 275 275 275 275 275 275 275 275 275 274 274 274 273 273 273 272 272 272 271 271 270 270
291 291 291 291 291 291 291 290 290 290 290 290 290 290 290 290 290 290 290 290 290 289 289 289 289 289 289 289 288 288 288 288 287 287 287 287 286 286 285 284 283 283 282 280 279 279 278 277 277 277 276 276 276 276 276 276 276 276 275 275 275 275 275 275 274 274 274 274 274 274 274 274 274 274 273 273 273 272 272 271 271 271 270 270 270
291 291 291 291 291 291 290 290 290 290 290 290 290 290 290 290 290 290 290 289 289 289 289 289 288 288 288 288 288 287 287 287 286 286 286 286 285 284 284 283 282 281 281 280 279 278 277 276 276 276 276 276 276 276 276 276 276 275 275 275 274 274 274 274 273 273 273 273 273 272 273 273 273 273 272 272 272 272 271 271 271 271 270 270 270
291 290 290 290 290 290 290 290 290 290 290 290 290 290 290 290 290 289 289 289 289 289 288 288 288 287 287 287 287 286 286 286 285 285 285 284 284 283 282 282 281 280 279 278 278 277 277 276 276 276 276 276 276 276 276 275 275 275 275 274 274 274 273 272 272 272 272 272 272 272 271 271 271 271 271 271 271 271 271 271 270 270 269 269 269
290 290 290 290 290 290 290 290 290 290 290 290 290 290 290 289 289 289 289 289 288 288 288 288 287 287 286 286 285 285 285 284 284 284 284 283 283 282 281 280 280 279 278 277 276 276 275 275 274 274 274 274 274 274 274 274 273 273 273 272 272 272 271 271 270 270 270 270 271 271 271 270 270 270 270 270 270 270 270 270 270 269 269 269 269
290 290 290 290 290 290 290 290 290 290 290 290 290 290 289 289 289 289 288 288 288 287 287 287 286 286 285 285 284 284 284 283 283 283 282 281 281 280 279 278 277 276 276 275 275 274 274 274 273 273 273 273 273 273 272 272 272 271 271 270 270 269 269 269 268 268 268 268 269 269 269 270 270 270 270 269 269 269 269 269 269 268 268 268 268
290 290 290 290 290 290 290 290 290 290 290 290 290 289 289 289 288 288 288 287 287 286 286 286 285 285 285 284 284 283 283 282 281 280 280 279 278 277 277 276 276 275 275 274 274 274 273 273 273 273 272 272 272 272 271 271 270 270 269 269 269 268 268 268 267 267 267 267 267 268 268 268 268 268 269 268 268 269 269 268 268 268 268 268 268
290 290 290 290 290 290 290 290 290 290 290 289 289 289 288 288 288 287 287 286 286 286 285 285 284 284 283 283 282 282 281 280 279 278 277 277 276 275 275 275 274 274 274 274 273 273 273 272 272 272 272 272 271 271 270 270 269 269 269 268 268 268 267 267 266 266 265 265 266 266 267 267 267 267 267 267 268 268 268 268 267 267 267 268 268
290 290 290 290 290 290 290 290 289 289 289 288 288 288 287 287 287 286 286 285 285 285 284 284 283 282 281 281 281 280 279 277 277 276 275 275 275 274 274 274 273 273 273 273 273 272 272 272 272 271 271 271 271 270 270 269 269 268 268 268 267 267 267 266 266 265 265 265 265 265 266 266 266 266 266 267 267 267 267 267 267 267 267 267 267
290 290 290 290 289 289 289 288 288 288 287 287 287 287 286 286 285 285 285 284 284 283 283 282 281 280 279 279 279 278 277 276 276 275 275 274 274 273 273 273 273 273 273 272 272 272 272 271 271 271 271 271 270 270 269 269 268 268 268 267 267 267 266 266 265 265 265 264 264 264 265 265 265 266 266 266 266 266 266 266 266 266 266 267 267
290 289 289 289 288 288 288 287 287 287 286 286 286 285 285 284 284 283 283 282 282 281 281 280 279 279 278 277 277 277 276 275 275 274 274 273 273 273 273 273 272 272 272 272 271 271 271 271 271 270 270 270 270 269 269 268 268 268 267 267 267 266 266 266 266 265 265 265 264 264 264 264 265 265 265 265 265 265 265 265 265 266 266 266 266
289 288 288 288 287 287 287 286 286 285 285 285 284 283 283 282 282 281 281 281 280 280 279 279 278 277 277 276 276 275 275 274 274 274 273 273 273 273 272 272 272 271 271 271 271 271 270 270 270 270 270 269 269 269 268 268 268 267 267 267 267 266 266 266 266 265 265 265 265 264 264 264 264 264 264 264 264 264 265 265 265 265 266 266 266
287 287 287 287 286 286 286 285 285 284 283 283 282 282 281 281 280 280 280 279 279 278 278 277 277 276 276 275 275 275 274 274 273 273 273 273 272 272 272 272 271 271 270 270 270 270 270 270 269 269 269 269 269 268 268 268 267 267 267 267 267 266 266 266 266 265 265 265 265 264 264 264 264 264 264 264 264 264 265 265 265 265 265 266 266
286 286 286 286 285 285 284 284 283 283 282 281 281 280 280 280 279 279 278 278 277 277 276 276 276 275 275 274 274 274 273 273 273 273 272 272 272 272 271 271 270 270 270 269 269 269 269 269 269 269 269 269 268 268 268 267 267 267 267 267 267 266 266 266 265 265 265 265 265 265 264 264 264 264 264 264 264 264 264 264 265 265 265 265 266
285 285 285 285 284 284 283 283 282 281 281 280 280 279 279 279 278 278 277 277 276 276 275 275 275 274 274 274 273 273 273 273 272 272 272 272 272 271 271 270 270 270 269 269 269 269 269 269 269 269 269 268 268 268 268 268 267 267 267 267 267 266 266 266 266 265 265 265 265 265 265 265 265 264 264 264 264 264 264 265 265 265 265 265 265
285 285 284 284 283 283 282 282 281 280 280 279 279 278 278 278 277 277 276 276 275 275 275 274 274 273 273 273 273 272 272 272 272 272 271 271 271 271 270 270 270 270 269 269 269 269 269 269 269 269 269 269 268 268 268 268 267 267 267 267 266 266 266 266 266 266 265 265 265 265 265 265 265 265 265 265 265 265 265 265 265 265 265 265 264
284 283 283 283 282 281 281 280 279 279 278 278 278 277 277 276 276 275 275 275 274 274 274 273 273 273 272 272 272 272 272 271 271 271 271 271 270 270 270 270 269 269 269 269 269 269 269 269 269 269 269 269 269 268 268 268 267 267 267 267 267 266 266 266 266 266 266 265 265 265 265 265 265 265 265 265 265 265 265 265 265 265 264 264 264
283 282 282 281 280 280 279 278 278 277 277 277 276 276 276 275 275 274 274 274 274 273 273 273 272 272 272 272 271 271 271 271 271 271 271 270 270 269 269 269 269 270 270 270 270 269 269 269 269 269 269 269 269 269 268 268 268 267 267 266 266 266 266 266 266 266 266 266 266 265 265 266 266 265 265 265 265 265 265 265 264 264 264 264 264
281 281 280 279 278 278 277 277 276 276 276 276 275 275 275 274 274 274 273 273 273 273 272 272 272 272 272 272 271 271 271 271 271 271 270 270 269 269 269 269 269 270 270 270 270 270 269 269 269 269 269 269 269 269 268 268 268 268 267 267 266 266 266 266 266 266 266 266 266 266 266 266 266 265 265 265 265 265 265 264 264 264 264 264 264
279 279 278 278 277 277 276 276 276 275 275 275 274 274 274 273 273 273 273 273 272 272 272 272 272 272 272 271 271 271 271 271 271 270 270 269 269 269 269 269 269 270 270 270 270 270 269 269 269 269 269 269 268 268 268 268 268 268 268 267 267 267 267 266 266 266 266 265 266 265 265 265 265 265 265 265 265 264 264 264 264 264 264 264 264
Wind_Speed
37 37 36 34 34 33 33 34 34 33 32 31 31 31 32 34 38 41 42 40 39 38 37 37 36 35 34 32 31 29 27 25 24 22 21 20 18 17 16 14 13 13 13 12 12 12 11 11 10 8 7 6 7 8 9 10 11 12 12 12 12 14 15 16 20 22 20 18 19 19 20 22 22 22 23 25 25 27 28 29 30 30 30 31 31
37 37 36 35 35 35 34 34 33 30 30 31 32 33 34 36 39 42 42 40 39 39 38 37 36 35 34 33 31 30 27 26 24 23 22 20 19 18 17 15 14 14 13 12 13 13 13 12 10 8 7 7 7 8 10 11 12 12 13 13 13 14 16 17 20 23 23 22 21 21 21 23 24 24 25 27 28 29 30 31 32 32 32 33 33
38 37 36 35 35 35 35 35 34 32 31 32 33 34 35 37 41 43 42 41 40 39 38 38 37 35 34 33 32 30 28 26 25 23 22 20 19 18 17 15 15 14 13 13 14 14 14 12 11 9 8 7 7 9 10 11 12 13 13 14 14 15 17 18 20 23 25 26 25 24 24 24 25 26 27 29 30 31 32 33 34 34 34 34 34
39 38 36 36 36 36 36 36 36 34 33 33 34 35 36 39 43 44 43 42 41 40 39 38 37 36 35 34 32 30 29 27 25 23 22 20 19 18 17 16 15 15 14 14 15 15 15 14 12 10 9 8 8 9 11 12 13 13 14 15 16 16 17 19 20 22 25 27 27 27 27 27 27 27 28 30 31 32 34 35 36 36 36 36 35
40 39 37 36 37 37 37 37 37 35 33 33 34 36 38 40 44 44 43 43 41 40 39 39 38 36 35 34 32 30 28 27 25 24 22 21 20 19 18 17 16 16 15 16 16 16 16 15 13 12 10 9 9 10 11 13 14 14 15 16 17 18 19 20 21 22 25 27 28 28 28 29 29 28 29 31 32 33 35 36 37 38 38 37 36
40 40 38 37 37 38 39 38 37 35 33 32 34 37 39 41 44 45 44 43 42 40 40 39 38 36 35 33 31 30 28 27 26 24 23 22 21 20 19 18 17 17 17 17 17 17 17 16 14 13 12 11 11 11 12 14 15 15 16 17 18 19 20 20 21 23 25 27 28 29 30 30 30 30 30 31 33 35 37 38 39 39 39 39 37
40 41 40 39 38 38 39 39 37 35 33 32 35 38 40 42 44 45 44 43 42 40 40 39 37 36 35 33 31 30 28 27 26 25 24 23 22 21 20 19 19 19 19 19 19 19 18 18 16 15 14 12 12 13 14 15 16 16 17 19 20 21 21 21 22 23 25 27 28 29 30 31 31 32 31 32 33 35 37 39 40 40 40 40 39
40 41 41 41 39 39 39 39 37 35 32 32 35 39 41 43 45 45 44 43 42 40 39 38 37 37 35 33 32 30 29 28 27 26 25 24 23 22 21 20 20 21 21 20 20 20 20 19 18 17 16 14 14 15 16 17 18 18 18 20 21 23 23 23 23 24 26 27 29 29 30 32 32 32 32 32 33 35 36 38 40 41 41 41 40
40 40 42 42 41 39 39 38 37 35 33 33 35 39 42 43 45 45 44 42 41 40 39 39 38 38 36 34 33 31 30 29 28 27 26 25 24 23 22 22 23 23 23 22 21 21 21 21 20 19 17 16 16 17 18 19 20 19 19 21 23 24 24 25 25 25 26 28 29 29 31 32 32 32 33 32 33 36 37 38 40 41 41 42 40
39 40 42 42 42 40 39 38 37 37 36 35 36 38 40 42 44 45 43 42 41 41 41 41 39 38 37 35 34 33 31 30 29 28 27 26 25 24 23 24 24 25 25 24 23 23 23 23 22 20 19 19 19 19 20 21 22 21 21 22 24 25 26 26 26 26 27 29 30 29 31 33 32 32 33 33 33 36 37 38 40 41 41 42 41
39 40 41 41 42 41 40 39 38 38 38 36 36 37 38 41 43 44 43 42 42 42 42 41 40 39 38 36 34 33 31 31 30 29 27 26 26 25 25 26 26 27 27 26 26 25 24 24 23 22 22 21 21 21 22 23 23 23 24 25 25 27 27 28 28 28 29 30 30 31 32 33 32 32 32 33 34 35 37 38 39 40 41 41 41
39 40 40 40 42 42 41 40 40 40 39 37 36 36 37 39 42 43 43 43 43 43 42 42 41 40 38 36 34 33 32 32 31 29 28 27 27 27 28 28 29 30 30 29 28 27 27 26 25 24 24 23 23 24 24 25 25 26 27 27 28 29 29 29 29 29 30 31 32 33 33 33 33 33 32 33 34 36 37 38 39 40 40 40 39
38 39 39 40 42 43 42 42 41 40 39 38 36 36 36 38 40 42 44 44 44 43 42 42 41 39 37 35 35 35 34 33 31 29 29 28 29 30 30 31 31 32 32 32 31 30 29 28 27 27 26 25 26 26 26 26 26 28 29 30 31 31 31 31 31 31 32 32 34 35 34 34 34 34 33 33 35 36 37 38 39 39 40 39 38
36 38 39 39 41 42 42 43 42 41 39 38 36 36 36 37 39 41 44 45 44 44 43 42 40 38 36 36 36 36 35 32 30 31 31 30 31 32 32 33 33 34 35 35 33 32 32 31 30 29 28 28 28 28 28 28 28 30 31 32 33 33 33 33 33 33 34 35 36 36 36 35 35 35 34 34 35 36 37 39 39 38 38 38 38
33 36 38 39 40 41 42 42 42 40 39 38 37 36 35 36 37 40 43 45 45 43 42 40 37 36 36 37 38 36 34 32 33 33 32 32 32 34 35 35 36 37 38 37 36 35 35 34 33 32 31 31 31 30 30 30 31 32 34 35 35 35 36 35 34 34 35 37 37 37 37 37 37 36 36 35 35 37 38 39 38 37 37 38 38
30 33 36 38 39 40 40 41 40 39 38 38 36 35 34 34 35 38 41 44 43 41 39 38 37 36 37 38 37 35 34 35 35 34 33 33 34 36 38 38 38 39 40 39 38 38 37 37 36 35 34 34 34 33 32 33 34 35 37 37 37 38 38 37 36 36 37 38 38 38 38 38 38 38 37 35 35 38 38 38 38 36 37 38 40
27 30 33 35 36 37 37 37 37 36 36 35 34 33 32 32 32 35 38 40 41 40 38 37 36 36 36 36 36 36 37 37 35 34 35 36 37 38 40 41 41 41 41 40 40 40 40 39 38 38 38 37 36 35 35 36 36 38 39 40 40 41 41 39 37 38 39 39 39 39 39 39 38 39 37 34 34 36 38 38 37 35 35 38 39
23 25 27 29 30 31 32 33 32 32 32 31 30 29 28 28 28 30 34 37 38 37 35 34 34 35 35 35 36 38 39 37 35 36 37 38 39 40 41 42 42 42 41 41 42 43 42 42 41 41 41 39 38 38 39 39 39 40 41 42 42 44 43 41 40 40 40 40 40 41 41 40 40 39 37 35 34 35 37 37 36 35 35 36 36
17 19 21 23 24 25 26 26 27 27 26 26 25 25 24 24 24 26 29 31 33 33 33 34 34 34 34 35 38 39 38 36 36 38 39 41 41 40 40 42 43 43 43 43 44 44 45 44 44 44 43 42 41 41 41 41 42 42 42 43 45 46 45 43 42 42 41 42 42 42 41 41 40 39 38 36 35 35 35 35 35 35 34 34 33
10 12 14 16 17 18 19 20 21 21 20 20 20 20 20 20 20 22 24 26 29 30 32 33 33 33 34 36 38 37 35 35 37 40 41 41 40 39 39 42 43 43 44 44 45 46 46 46 46 46 45 44 44 44 43 44 44 44 43 45 47 48 46 44 44 44 43 44 44 44 43 42 40 39 38 36 35 34 33 32 32 31 32 32 31
4 6 7 9 10 11 12 13 13 14 14 15 15 16 17 18 19 21 22 23 25 26 27 28 29 31 32 33 33 34 35 37 39 40 40 39 38 38 40 42 42 43 44 45 47 48 48 47 47 46 46 46 46 45 45 46 46 46 47 49 49 48 47 46 46 45 45 45 45 46 46 44 41 40 37 35 34 32 31 30 31 32 31 31 31
9 8 8 8 8 9 9 10 10 11 12 13 14 15 15 16 17 18 19 21 22 22 23 24 25 26 27 29 31 33 35 37 37 37 37 37 37 38 39 40 40 41 43 44 46 47 47 47 47 47 47 47 47 47 47 47 47 48 49 50 49 48 47 47 47 45 45 45 46 47 47 45 43 41 38 36 34 31 30 32 33 33 33 32 31
14 13 13 12 12 12 11 11 11 10 10 10 11 11 12 13 14 16 17 18 19 20 21 21 22 24 25 27 29 29 30 31 32 32 33 34 34 35 36 36 37 38 40 42 43 43 43 44 44 45 45 46 47 48 48 48 49 49 49 48 46 44 41 42 44 45 45 45 45 46 46 45 42 41 39 36 33 31 31 33 34 34 33 32 30
15 14 14 13 12 11 10 9 9 8 8 9 10 11 13 15 16 17 17 18 19 19 20 21 22 23 24 24 24 24 25 26 28 29 30 30 31 31 32 32 34 35 37 40 40 41 41 42 42 43 43 44 46 46 47 48 48 47 47 44 40 36 35 36 39 41 43 44 45 47 47 44 42 40 39 36 32 32 33 34 36 36 33 31 30
14 13 13 12 11 10 10 9 9 9 10 12 12 13 14 15 15 16 16 17 18 18 18 19 20 21 21 21 21 21 22 24 24 25 26 27 27 28 29 30 31 32 34 37 38 39 39 40 40 41 41 42 43 44 45 46 45 44 42 39 35 32 32 33 35 38 41 43 45 46 45 43 41 39 38 36 34 34 34 35 37 36 33 31 31
13 13 12 12 12 12 11 11 12 12 13 13 13 13 13 13 13 13 13 14 14 15 15 16 17 18 19 18 18 19 20 21 22 23 24 25 26 27 28 29 30 30 32 33 34 35 36 37 38 39 39 40 42 44 45 45 44 43 42 38 34 33 32 31 31 35 39 41 42 42 41 40 39 38 38 37 36 35 35 36 38 37 33 31 31
13 13 13 13 13 14 13 13 13 12 12 12 11 10 10 9 9 9 9 10 10 11 12 13 14 15 15 16 17 18 20 21 22 23 24 25 26 27 28 29 30 31 32 32 32 33 34 35 36 37 38 38 39 41 42 43 43 43 42 39 36 34 33 31 30 31 33 35 37 38 38 39 39 39 38 37 37 36 35 36 38 37 32 30 31
12 13 13 13 13 13 13 12 11 11 10 10 9 8 7 6 6 6 6 7 8 9 10 11 12 14 15 16 18 20 21 22 24 25 26 27 28 29 30 31 31 32 32 32 32 33 33 34 34 34 34 34 35 35 36 37 39 39 39 38 37 35 34 33 31 30 30 31 33 35 36 37 38 38 38 38 37 37 37 37 37 36 32 30 30
13 13 13 13 13 13 12 12 11 10 9 8 8 7 6 6 5 6 6 7 8 10 12 13 14 16 18 19 21 23 24 25 26 28 29 30 30 31 31 31 31 31 30 30 30 30 31 31 31 31 31 31 32 32 32 32 33 33 33 33 33 33 33 32 32 32 32 33 34 35 35 36 36 37 38 38 38 37 36 36 35 33 30 29 30
12 13 12 12 12 11 11 10 10 9 8 8 7 6 6 5 6 7 8 9 11 12 14 15 17 18 20 21 23 24 25 26 27 28 29 30 30 31 31 31 30 30 30 29 28 29 29 29 28 28 27 28 28 28 28 27 28 28 29 29 29 29 29 30 30 30 30 31 32 33 34 35 36 37 37 37 36 34 33 31 29 29 29 29 29
12 12 12 11 11 11 10 10 9 8 7 6 5 5 5 6 7 8 9 11 13 14 16 18 19 20 21 22 23 25 26 26 27 28 28 29 29 29 29 28 28 28 27 26 26 28 28 27 27 26 25 25 26 26 25 25 26 27 27 28 30 30 30 30 29 29 29 29 29 30 31 33 34 35 35 34 33 31 29 27 26 27 28 27 28
11 11 11 10 10 9 9 8 7 6 6 5 5 6 7 8 10 11 12 13 15 16 18 19 20 21 22 23 24 25 25 26 26 27 27 27 27 27 26 25 24 25 23 21 22 24 25 25 25 25 25 25 26 26 26 27 28 28 29 31 32 33 32 32 31 30 30 31 30 30 32 32 32 32 32 31 30 29 29 27 26 26 26 27 27
9 8 8 8 8 7 7 7 7 6 6 7 7 8 9 11 12 13 14 15 17 18 19 20 21 22 22 23 24 25 25 25 26 26 26 26 26 26 25 24 23 24 23 20 20 21 22 23 24 25 25 26 26 27 27 28 28 29 30 30 32 33 33 33 32 32 31 31 31 31 32 32 32 31 30 29 29 29 29 28 26 25 26 26 26
7 8 8 7 8 8 8 8 8 8 8 9 10 11 12 13 13 14 15 16 17 17 18 19 20 21 22 22 23 23 24 24 25 25 25 25 24 24 24 23 22 22 21 21 21 22 22 23 24 25 26 27 28 29 29 30 31 32 32 33 33 33 33 32 32 32 32 31 30 30 30 30 29 28 27 27 28 29 29 28 26 25 25 25 25
8 8 8 8 9 9 9 9 10 10 11 11 12 12 12 13 13 14 14 15 16 17 18 18 19 20 20 21 22 22 23 23 23 23 23 24 23 22 22 22 22 21 21 21 22 22 23 23 24 25 27 28 30 32 34 35 36 37 38 39 39 39 38 36 34 33 32 31 30 28 26 26 26 25 26 27 28 29 29 27 26 25 24 24 24
9 9 9 10 10 10 10 11 11 11 11 11 11 11 11 12 13 13 14 15 16 16 17 18 18 18 19 19 20 21 21 22 23 23 23 23 22 22 22 22 23 23 22 21 21 22 22 23 23 25 26 28 29 32 34 35 37 38 39 40 40 40 40 39 37 36 34 33 31 29 28 27 26 26 26 27 27 27 26 25 24 24 23 23 24
9 9 9 10 10 10 10 10 10 10 10 10 11 11 12 13 13 14 15 15 16 16 17 17 17 18 18 19 19 20 21 21 22 22 22 22 22 22 22 22 23 23 22 22 21 21 21 22 23 24 25 26 28 29 31 32 33 34 35 35 35 35 35 34 34 34 33 32 31 30 29 28 27 26 25 25 24 23 23 23 24 23 23 22 23
8 9 9 9 9 9 9 9 9 10 10 11 12 12 13 14 14 14 15 15 15 16 16 16 17 18 19 20 20 21 20 20 20 21 21 22 22 22 22 22 22 21 21 21 22 22 22 23 23 23 24 25 26 27 28 28 29 29 29 29 29 28 28 28 28 28 28 27 27 26 24 23 22 22 22 22 22 21 22 22 23 23 22 22 23
8 8 9 9 9 8 9 9 10 11 11 12 13 13 13 13 14 14 14 15 15 15 16 17 17 18 19 19 20 20 19 19 20 20 21 21 21 21 20 20 19 19 20 21 22 22 22 23 23 23 23 24 25 25 26 26 26 26 26 26 26 26 25 25 25 24 23 23 23 22 21 19 18 18 20 20 21 21 21 22 22 22 22 22 22
8 8 8 8 8 9 10 10 11 12 12 12 12 13 13 13 13 14 14 15 15 16 16 16 17 17 17 19 19 19 19 19 19 19 19 19 19 19 18 18 18 18 19 21 21 22 22 22 22 22 23 23 24 24 25 25 25 25 25 25 25 25 24 23 23 22 21 21 22 22 22 21 20 19 19 19 20 21 21 21 22 21 21 21 21
8 8 8 9 9 10 11 11 11 11 11 12 12 12 13 13 14 14 14 15 15 15 15 15 15 16 17 19 20 19 18 18 19 18 17 17 17 16 17 17 18 18 19 20 21 21 21 20 20 21 21 22 23 23 23 23 23 23 23 23 23 23 23 22 21 21 20 20 21 22 23 23 22 22 21 20 20 21 20 20 20 21 21 20 21
9 9 10 10 10 11 11 11 10 10 10 11 12 13 13 13 13 13 13 13 13 14 14 15 16 17 18 19 20 19 18 18 18 17 17 16 16 16 16 17 18 18 19 20 20 20 20 19 19 19 20 20 21 22 22 22 22 22 22 22 22 22 22 21 20 20 19 19 19 20 21 22 23 23 22 21 20 19 19 19 19 20 20 20 20
10 10 10 10 10 10 10 9 10 10 11 12 12 12 12 12 12 11 12 12 13 14 15 16 17 18 18 19 19 19 19 18 17 17 16 16 16 17 18 18 18 18 18 19 19 20 19 18 18 18 18 19 20 21 21 21 21 21 21 21 20 20 20 20 19 18 18 18 17 17 18 19 20 20 19 18 18 17 17 18 18 19 19 20 20
11 10 10 10 9 9 9 10 10 11 11 11 11 11 10 10 11 11 12 13 14 15 16 17 17 18 18 18 19 19 18 18 17 17 17 17 18 18 19 19 18 18 18 18 19 19 19 19 18 17 17 18 19 20 20 20 21 21 21 21 20 19 18 18 17 17 17 16 15 15 15 16 17 17 16 16 16 16 17 17 18 19 19 20 20
11 10 10 10 10 10 10 11 11 11 11 10 10 10 10 11 12 13 14 15 16 16 17 18 18 18 18 18 18 18 18 18 17 17 18 18 19 19 19 19 18 18 17 17 18 18 19 19 18 17 17 17 17 18 19 19 20 21 21 21 20 19 17 17 16 16 16 16 15 14 14 14 14 15 15 15 15 16 17 17 18 19 19 19 19
11 11 11 11 11 12 12 12 11 11 10 10 10 11 12 13 14 15 16 16 17 17 18 18 18 18 18 18 18 18 18 17 17 18 18 19 19 20 19 19 18 18 17 17 17 17 18 18 18 17 17 16 16 16 17 17 18 19 20 20 20 19 17 17 16 15 15 15 15 14 14 14 14 14 15 16 16 17 17 18 19 19 19 19 18
11 12 12 13 13 13 13 12 12 11 11 11 12 13 14 15 16 16 17 17 17 18 18 18 18 18 17 17 17 17 17 18 18 18 19 19 20 20 20 19 18 18 17 16 17 17 17 17 17 17 17 16 16 16 16 16 16 18 19 19 19 18 17 17 16 16 15 15 15 15 15 15 15 15 16 17 17 18 18 18 18 18 18 17 17
13 13 13 14 14 13 13 12 12 12 12 13 14 15 15 16 17 17 17 18 17 18 18 18 18 18 17 17 17 18 18 18 19 19 19 20 20 20 20 19 18 18 17 16 16 17 17 17 17 17 17 16 16 16 15 15 15 16 17 18 18 18 17 16 16 16 16 16 16 16 16 16 16 17 17 17 18 18 18 18 17 17 17 16 16
13 13 13 13 13 13 13 12 12 13 13 14 15 16 17 17 17 18 18 18 17 18 18 18 18 18 18 18 18 19 19 20 20 20 20 20 20 20 20 20 19 18 17 17 17 17 18 18 18 18 17 17 17 16 15 15 15 15 16 17 17 17 17 16 16 16 16 16 16 16 17 17 17 17 17 17 17 18 18 18 17 17 16 16 15
14 13 13 13 13 13 13 13 14 14 15 16 17 17 17 18 18 18 18 18 18 18 19 19 19 19 19 19 20 20 21 21 21 21 21 21 21 21 21 20 19 19 18 18 18 19 19 20 20 19 19 18 17 17 16 15 14 15 15 16 16 16 16 16 16 16 16 16 16 17 17 17 17 17 17 17 18 17 17 17 16 16 15 15 15
13 13 13 14 14 14 14 15 15 16 17 17 18 18 18 18 18 19 19 19 19 19 19 20 20 20 20 21 21 22 22 22 22 22 22 21 21 21 21 20 20 19 19 19 20 20 21 21 21 20 20 18 18 17 16 15 14 14 14 15 15 16 16 16 15 16 16 16 16 17 17 17 17 16 16 16 16 16 16 16 15 15 15 15 15
Wind_Direction
232 232 230 226 224 226 228 230 234 236 231 224 223 220 215 211 207 204 204 204 203 203 202 201 201 200 200 200 200 201 201 201 201 201 200 201 202 206 211 216 223 231 236 240 244 247 252 257 262 267 270 276 284 287 290 290 291 293 292 291 290 291 292 293 294 298 300 300 300 300 300 300 301 302 301 301 302 303 304 306 308 310 313 316 319
235 234 232 228 224 225 228 232 235 236 231 226 224 220 214 210 207 206 207 207 206 206 205 204 204 204 204 203 203 204 205 205 205 204 204 205 207 211 216 222 229 235 238 243 248 250 253 255 260 266 269 276 284 288 292 293 293 294 293 291 291 292 294 295 297 300 302 302 302 302 302 301 301 302 301 301 302 303 304 306 307 309 312 315 317
238 237 234 229 225 225 227 230 233 235 234 231 226 220 213 208 207 208 209 209 208 208 208 207 207 207 207 207 207 207 207 208 208 208 209 211 214 217 222 227 234 239 242 248 251 253 254 255 259 265 268 274 284 292 296 296 296 296 294 293 293 293 295 297 298 300 303 304 305 306 305 302 302 302 302 301 302 303 304 305 307 308 311 313 315
239 238 234 229 227 226 227 229 232 233 234 233 228 219 212 208 208 209 211 211 211 210 210 210 210 210 210 210 210 210 210 210 211 212 214 217 219 223 227 232 237 241 245 250 254 255 255 256 258 262 267 274 286 296 299 299 298 298 297 296 295 295 295 297 299 300 302 303 305 306 305 303 302 302 301 300 300 302 302 304 305 307 309 312 314
239 239 235 230 227 226 227 229 231 232 233 233 227 218 211 209 209 211 213 213 213 213 212 212 213 214 214 214 214 214 214 214 215 217 219 220 223 227 232 237 240 243 248 253 255 256 257 258 258 261 266 274 286 297 301 301 301 300 301 299 297 296 295 296 298 299 301 302 304 304 303 303 302 301 300 300 300 301 301 302 303 305 308 311 314
238 239 236 232 229 226 226 228 230 231 232 231 226 218 212 210 211 213 215 215 215 215 215 215 216 217 218 218 218 218 218 219 220 223 224 226 227 230 235 239 242 246 251 254 256 257 258 258 259 263 268 274 285 294 299 301 302 302 302 300 298 297 296 296 297 298 299 300 301 301 301 301 301 300 300 301 301 301 301 301 303 305 308 310 313
237 237 236 234 231 228 226 227 229 230 230 229 225 218 213 212 213 216 217 217 218 218 218 219 219 220 221 222 222 222 222 223 225 227 229 230 232 236 240 242 245 250 253 255 257 258 258 260 262 265 269 275 283 291 296 299 301 302 302 300 298 297 297 297 297 297 298 298 298 299 300 300 299 300 300 301 302 302 302 302 303 305 307 309 312
236 236 236 235 233 230 227 227 229 230 230 228 224 219 215 213 215 217 218 219 220 220 221 222 223 224 224 224 225 226 226 227 229 231 232 233 236 240 243 247 251 254 255 256 258 258 259 262 264 266 270 276 282 288 293 296 298 301 301 299 296 295 296 297 296 296 296 296 297 299 300 299 299 300 301 301 301 301 301 301 302 304 306 308 311
237 236 235 235 235 232 228 228 229 230 230 228 225 221 217 216 217 219 220 220 221 222 223 224 226 227 227 227 227 228 229 230 233 235 236 237 240 243 247 251 254 255 256 258 258 258 261 263 266 268 271 276 281 286 291 294 296 299 299 298 295 294 294 294 294 296 296 295 297 299 299 299 299 301 301 301 301 300 300 301 301 303 304 306 309
239 237 236 236 235 233 230 229 229 229 230 229 226 223 220 218 219 221 222 222 223 223 224 226 227 228 230 230 230 231 232 234 236 237 239 241 244 248 252 255 257 257 258 259 258 258 261 264 266 268 271 276 282 286 290 292 295 297 298 296 295 293 292 292 293 295 295 295 297 299 298 299 301 302 301 301 300 299 299 300 300 302 303 306 309
239 238 237 236 235 234 232 230 230 230 231 230 228 226 223 221 222 223 224 224 224 225 226 227 228 230 231 232 234 236 238 239 239 240 241 243 247 252 256 258 258 260 260 259 258 258 260 263 266 268 272 278 282 286 289 291 294 296 296 296 294 292 290 290 291 292 293 294 296 296 296 299 302 303 301 301 300 298 299 299 299 301 303 305 308
241 239 238 236 235 234 232 231 231 231 232 232 231 229 226 225 224 224 225 226 226 227 228 229 230 231 232 234 236 239 242 242 243 243 244 246 252 257 259 259 259 260 261 260 258 257 259 262 265 268 273 278 282 286 288 291 294 296 296 295 294 293 291 289 289 290 290 292 294 294 296 299 301 301 301 300 299 297 297 297 297 299 301 303 305
243 239 237 236 235 234 232 231 232 232 233 234 234 232 230 227 226 225 226 227 228 229 230 231 232 232 234 237 239 241 243 244 245 247 249 253 257 259 260 260 261 262 262 261 258 257 259 261 264 268 272 277 281 284 287 290 293 294 294 294 294 294 293 291 290 291 291 291 292 294 297 298 299 300 300 299 297 296 295 295 296 298 299 301 302
245 240 237 235 234 234 233 232 232 232 233 234 235 235 233 230 228 227 227 228 229 230 231 232 233 234 237 240 243 244 245 246 248 252 254 256 258 260 261 261 262 263 263 261 259 259 261 262 265 268 271 275 279 282 285 288 291 292 291 291 292 293 292 290 290 290 291 291 292 294 296 297 297 298 298 297 295 294 293 293 295 296 297 299 301
246 241 237 235 234 233 233 232 232 232 233 234 235 235 233 231 230 228 227 228 230 232 233 234 235 238 242 244 246 247 248 250 253 255 257 258 259 260 261 262 262 263 262 261 260 262 263 264 266 269 272 275 278 281 283 286 288 289 289 289 290 290 290 289 288 287 287 287 289 292 293 294 294 294 295 294 292 291 291 291 293 294 296 297 299
246 242 237 235 233 233 233 232 231 232 233 234 235 235 234 233 232 231 229 228 230 232 235 236 238 243 247 248 249 250 252 254 258 258 258 259 259 260 261 263 263 262 261 262 263 264 265 266 268 271 273 275 277 279 281 283 285 287 288 288 289 289 289 289 288 286 284 284 286 288 289 289 290 290 290 290 289 289 290 290 291 292 293 295 296
246 242 238 236 235 234 233 232 232 232 234 235 236 237 236 235 234 233 231 229 230 233 234 237 242 247 250 250 250 253 257 260 262 261 260 260 260 260 261 263 263 262 263 264 265 266 267 269 270 272 274 275 278 279 279 280 282 285 287 288 289 288 289 289 288 286 284 283 284 284 284 285 286 286 286 285 283 286 288 287 287 288 288 290 293
248 244 241 239 237 235 234 233 233 234 235 237 238 238 238 238 238 236 233 231 232 234 236 240 247 250 250 250 251 256 261 264 263 262 261 260 259 259 261 262 263 264 265 266 267 268 269 270 271 272 274 276 278 278 278 279 281 284 286 287 288 287 288 289 289 287 285 283 282 282 282 284 283 284 285 283 280 281 283 282 282 282 283 286 291
250 246 243 240 237 235 235 236 236 236 238 239 240 241 242 242 242 239 237 236 237 238 240 244 248 249 248 250 253 258 263 265 264 262 260 259 259 259 261 263 264 265 266 268 269 269 270 271 272 273 275 277 277 278 278 279 280 282 284 285 285 286 289 290 289 287 285 283 282 281 281 282 281 282 283 281 278 277 276 276 275 277 281 285 290
247 242 239 236 234 234 235 236 237 237 239 240 240 241 241 240 240 238 238 239 241 242 245 247 248 248 249 252 256 261 264 265 263 261 259 259 260 262 263 264 265 267 268 269 270 271 272 272 273 274 275 277 277 278 279 279 280 281 282 281 283 286 289 289 287 286 284 283 282 282 281 280 280 280 280 279 277 276 276 276 276 279 284 287 288
199 211 217 218 222 226 226 228 231 231 231 231 231 232 231 231 232 233 234 237 240 243 245 248 249 251 253 256 259 261 262 262 261 260 260 262 264 265 265 265 267 268 269 270 271 272 272 273 274 275 276 277 278 278 279 279 280 281 282 283 285 287 286 285 284 283 282 282 282 281 280 280 280 280 279 280 280 280 281 282 284 287 288 287 286
138 146 157 167 174 181 185 191 197 202 206 211 214 218 222 225 228 230 232 235 238 241 245 248 251 255 257 259 261 262 262 262 262 263 264 265 265 265 265 266 267 268 269 269 270 271 273 275 276 277 278 279 279 279 279 280 280 281 283 285 287 288 287 287 286 284 282 281 280 279 280 281 281 282 283 284 283 281 280 282 287 290 290 287 284
132 136 140 145 149 154 161 168 177 186 195 203 212 219 225 232 236 237 238 240 242 244 247 250 253 256 258 260 262 264 264 264 264 264 265 265 265 265 265 266 267 268 269 270 271 273 275 277 278 280 281 282 282 282 283 283 283 283 285 285 286 285 283 283 284 284 284 284 282 282 283 283 283 285 287 288 285 279 276 281 289 294 291 286 282
129 131 133 137 142 148 156 164 174 187 199 212 222 227 232 236 238 238 238 239 240 241 244 248 251 254 257 259 260 261 261 261 262 263 264 264 265 265 266 267 268 270 271 272 274 276 278 279 281 282 283 283 284 284 284 285 285 286 286 286 285 282 277 274 274 275 277 279 279 281 283 284 285 287 289 287 281 274 274 281 291 296 292 284 280
131 133 137 142 149 158 166 175 187 199 208 216 222 226 229 231 232 233 234 234 237 241 245 249 252 255 258 259 260 262 263 263 264 265 267 268 268 269 270 270 270 271 271 273 275 277 279 281 283 284 284 284 285 285 284 285 285 286 287 287 284 281 278 275 271 269 269 272 273 276 280 283 285 285 284 281 275 272 275 284 292 295 291 282 278
143 147 153 160 166 174 182 188 195 202 206 211 214 217 220 223 224 228 231 234 240 245 248 251 255 258 261 264 267 268 268 267 268 269 269 270 270 271 272 272 273 273 273 274 276 278 280 281 282 282 283 283 284 284 285 287 288 289 290 289 287 284 283 281 277 272 271 273 275 278 281 283 283 281 279 276 273 274 279 286 292 295 290 281 276
162 165 169 173 177 181 186 189 192 195 196 198 200 202 206 210 215 222 228 233 241 247 251 256 261 265 268 271 271 272 271 272 273 274 274 274 275 276 277 278 279 279 280 280 281 281 280 280 280 280 280 281 282 283 285 287 288 290 291 292 291 291 291 291 287 280 277 277 278 280 280 280 279 278 276 274 274 278 284 289 293 294 288 279 275
168 170 171 173 174 175 175 175 174 175 176 177 180 183 187 194 204 216 227 236 247 256 262 267 270 273 275 276 276 277 278 278 279 280 280 281 282 283 284 284 284 285 285 286 286 286 285 285 284 283 283 283 283 282 282 283 285 287 290 292 294 295 295 295 293 288 284 283 283 282 280 278 278 278 277 276 278 282 286 289 292 291 285 277 275
158 161 161 162 162 162 163 163 163 165 168 171 175 182 192 202 216 233 248 256 264 270 274 276 278 279 280 281 281 282 282 282 283 284 285 286 287 287 288 288 288 289 289 290 290 289 289 288 288 287 286 285 285 284 284 284 286 287 290 293 295 296 296 295 294 292 291 290 288 286 283 280 279 278 277 278 280 283 287 289 290 287 281 276 276
155 157 158 159 161 163 164 167 170 174 178 183 190 201 216 232 245 258 268 273 277 280 281 282 282 282 282 283 283 284 284 285 286 287 288 289 290 291 292 292 293 294 295 295 294 292 291 289 288 287 287 286 286 287 289 291 292 293 296 298 299 300 301 300 299 300 299 296 294 291 287 283 280 279 278 278 281 284 287 289 288 284 279 276 277
158 160 161 165 168 171 173 176 181 185 191 200 212 230 247 260 269 275 279 281 283 283 284 285 285 285 286 286 286 286 287 288 290 290 291 291 292 293 295 296 297 298 299 298 297 295 295 295 294 294 294 293 292 294 295 296 297 297 298 299 300 301 301 301 302 302 301 299 297 295 292 288 284 282 280 280 281 283 285 287 288 285 281 278 278
158 162 165 169 173 177 181 185 191 199 208 221 236 250 261 270 275 279 280 282 283 283 284 285 286 286 287 286 287 288 288 289 290 290 291 292 293 293 295 296 295 295 294 293 292 293 295 297 297 298 299 297 297 297 297 296 297 297 296 296 297 297 297 297 297 296 294 293 293 292 292 291 288 284 280 278 279 281 282 285 289 287 282 278 278
164 170 176 179 186 193 198 205 213 220 228 241 252 262 269 272 274 275 277 278 280 282 283 284 284 284 285 286 287 288 289 289 290 290 290 291 291 293 294 295 293 292 292 290 287 287 288 288 290 292 294 294 295 295 295 295 295 295 295 294 294 293 292 291 291 289 288 288 288 287 288 289 289 285 280 277 279 281 281 283 287 286 281 278 277
186 195 201 204 210 215 218 223 229 234 244 255 262 267 270 272 272 274 276 277 279 280 280 281 283 284 285 287 287 288 288 289 289 289 289 291 292 294 295 295 293 293 292 291 288 286 284 283 284 285 287 288 290 290 290 291 291 291 291 290 290 290 290 288 287 286 285 284 284 284 285 285 285 282 278 278 279 279 279 282 285 284 280 278 277
213 217 221 225 228 231 234 237 242 249 256 262 266 268 270 272 274 276 277 278 279 280 281 282 284 285 287 288 288 288 288 288 288 289 290 292 293 294 294 294 293 293 292 291 290 290 289 287 286 285 285 286 286 287 287 288 288 288 288 288 288 289 289 289 288 287 285 283 281 281 282 282 280 279 278 278 278 277 277 282 285 284 280 278 278
228 229 231 233 234 237 241 245 250 256 260 263 266 268 271 274 277 279 281 283 283 284 285 286 286 287 287 287 287 288 288 290 291 292 292 293 293 293 293 293 294 295 295 295 294 294 294 294 294 293 292 291 291 291 290 290 290 290 290 291 291 291 291 291 291 290 287 284 282 280 279 279 278 278 278 277 275 274 277 282 284 282 279 278 277
229 229 230 233 235 239 245 249 253 257 261 265 270 274 278 281 283 284 285 285 286 286 287 287 288 289 289 288 288 288 289 290 291 292 293 293 293 293 294 294 296 297 298 299 299 299 299 299 299 298 298 297 297 296 295 295 295 296 296 296 297 297 297 297 296 294 291 288 284 281 280 278 276 274 272 271 271 273 278 281 281 278 277 276 276
226 228 231 236 240 243 248 253 258 264 270 275 278 281 282 282 283 283 283 283 284 285 285 287 289 289 289 290 289 289 289 291 291 291 292 293 294 294 296 296 297 299 300 301 302 302 303 303 303 303 302 302 302 301 301 301 302 303 303 304 305 307 307 307 305 303 300 294 287 282 278 277 274 271 268 268 271 275 279 280 278 276 275 275 276
229 233 237 240 245 250 257 264 270 274 276 277 277 278 278 279 280 280 280 281 282 283 285 286 287 287 288 288 289 289 291 292 292 292 292 294 295 296 297 298 299 301 302 303 303 304 305 306 307 307 308 308 309 309 309 310 312 313 313 313 315 316 317 317 315 313 308 301 292 282 275 272 272 271 271 271 274 277 279 278 276 275 274 274 277
235 239 242 247 254 261 265 268 270 270 270 272 273 275 276 278 278 278 279 280 280 282 283 284 284 285 286 287 288 291 291 290 290 290 291 292 293 295 296 298 300 301 302 303 303 304 306 308 309 311 312 313 314 315 316 317 318 318 318 318 320 321 322 321 319 316 312 306 298 288 280 275 274 274 274 275 276 276 276 275 274 274 274 277 280
242 246 250 255 259 261 262 262 263 264 267 270 272 274 275 276 276 277 277 278 279 280 280 281 282 284 285 287 290 292 291 289 289 290 290 291 292 294 296 299 301 302 303 303 304 305 308 310 311 313 315 316 317 318 319 320 320 320 320 321 322 323 323 322 319 316 312 308 302 296 289 284 281 279 277 276 275 274 273 273 273 274 277 280 283
242 245 249 252 253 254 256 259 261 265 268 271 272 273 274 273 274 274 275 277 279 280 281 283 285 286 286 288 291 292 291 291 292 292 291 292 293 295 298 301 303 304 304 304 305 307 309 311 313 315 316 317 318 319 321 321 321 321 322 322 323 324 325 324 321 317 312 308 305 301 297 292 286 282 278 275 273 273 273 273 274 277 281 284 286
239 242 245 246 248 250 252 256 261 266 269 270 270 270 269 270 273 275 278 280 282 284 285 286 286 287 288 289 290 291 292 292 292 291 292 294 296 299 302 304 305 306 306 306 306 308 310 312 315 317 318 318 318 319 320 320 321 322 322 323 325 326 326 326 324 320 315 311 307 304 302 298 293 287 281 277 275 275 276 277 279 281 284 286 288
237 238 240 241 243 244 249 256 262 266 267 267 267 267 269 273 277 279 281 283 285 286 287 287 288 288 289 289 289 290 290 291 291 292 293 296 299 302 304 306 307 307 307 307 307 308 310 313 316 318 318 317 316 317 318 318 318 320 322 323 325 326 327 327 327 324 319 315 310 306 303 301 298 293 288 283 281 280 280 282 283 285 287 289 292
233 234 235 236 237 241 250 258 263 265 265 266 268 271 274 278 280 282 284 286 286 287 288 288 289 289 289 288 289 289 289 290 291 293 295 299 301 303 304 305 306 306 306 306 306 307 309 311 313 315 315 314 313 314 315 315 315 317 319 320 322 325 326 326 326 324 321 318 315 310 306 302 300 296 292 288 286 284 283 284 285 287 290 291 293
233 233 233 233 235 243 252 259 262 264 265 268 271 275 278 280 282 284 285 286 287 288 288 288 288 288 288 288 287 287 288 289 292 294 297 300 302 303 304 304 304 304 304 303 303 304 306 308 309 310 311 311 311 311 312 313 314 314 314 314 317 320 323 323 322 321 319 315 312 310 306 303 300 296 292 289 287 286 286 287 288 289 291 292 292
235 235 234 235 239 246 253 258 261 263 266 270 274 278 280 282 283 284 285 285 285 286 286 286 286 286 285 285 285 286 288 290 293 296 298 300 301 302 302 302 301 301 300 300 300 301 302 304 305 308 309 310 310 310 310 311 312 312 311 310 311 314 316 318 318 317 314 310 307 305 302 299 297 295 292 290 289 288 287 288 288 289 290 291 291
237 238 239 241 245 250 254 258 261 265 269 273 276 278 280 281 281 282 282 283 283 284 284 284 284 284 284 285 286 287 289 291 293 296 298 299 300 299 298 298 297 296 295 295 296 296 298 299 301 304 306 308 309 309 310 310 311 310 308 307 307 308 310 311 312 311 309 306 304 302 299 297 295 293 291 290 289 288 288 288 289 290 290 289 288
242 244 245 248 251 253 257 261 265 269 273 275 276 277 278 279 279 280 280 282 283 283 283 283 283 284 286 286 287 288 290 292 295 296 297 297 297 296 295 294 294 293 292 292 292 292 294 296 297 299 301 303 304 305 307 309 310 310 308 305 305 305 306 307 307 306 304 303 301 300 298 296 295 293 291 289 288 287 288 289 289 289 289 287 287
246 248 250 253 255 258 262 266 269 272 274 275 276 277 277 278 279 280 280 281 282 282 282 283 284 285 286 287 288 289 291 293 295 295 296 295 294 292 291 292 291 291 291 291 291 291 292 293 294 295 296 297 298 299 302 304 306 306 306 305 304 304 304 304 305 304 302 301 300 298 296 295 294 293 292 291 290 289 290 290 290 289 288 286 286
247 249 251 255 258 262 266 269 271 273 275 275 276 277 277 277 278 279 280 281 281 281 282 283 284 285 286 287 288 290 291 293 293 294 293 292 291 290 289 289 289 289 290 290 291 292 292 291 292 292 292 293 294 295 297 299 301 302 302 303 303 303 303 303 304 304 302 301 299 298 297 297 297 296 296 295 295 294 293 292 290 288 286 284 283